Location: Az?znagar
(16.8373°N, 80.5091°E)
Time: 15:37:25
(UTC+00:00)

BlueWalker 3 - Visible Passes

Search period start: 04 December 2022 00:00
Search period end: 14 December 2022 00:00
Orbit: 501 x 519 km, 53.2° (Epoch: 04 December)

Date Brightness Start Highest point End Pass type
(mag) Time Alt. Az. Time Alt. Az. Time Alt. Az.
12 Dec 3.7 13:14:01 10° N 13:15:32 18° NNE 13:15:32 18° NNE visible
13 Dec 3.0 12:55:28 10° N 12:58:43 25° NE 13:00:16 19° E visible
13 Dec 5.1 14:34:41 10° W 14:35:18 12° W 14:35:18 12° W visible
